Location: Anne Acres
(38.7004°N, 75.0827°W)
Time: 20:34:47
(UTC+00:00)

Vanguard 3 - All Passes

Search period start: 08 November 2024 00:00
Search period end: 18 November 2024 00:00
Orbit: 508 x 3221 km, 33.3° (Epoch: 07 November)

Date Brightness Start Highest point End Pass type
(mag) Time Alt. Az. Time Alt. Az. Time Alt. Az.
08 Nov - 00:00:39 10° W 00:06:38 33° SSW 00:10:39 10° SE visible
08 Nov - 15:58:30 10° S 16:08:58 18° SE 16:17:27 10° ESE daylight
08 Nov - 18:08:16 10° SW 18:22:46 40° SSE 18:31:57 10° E daylight
08 Nov - 20:23:06 10° WSW 20:35:47 59° S 20:42:52 10° E daylight
08 Nov - 22:38:52 10° W 22:47:35 52° SSW 22:52:41 10° ESE visible
09 Nov - 00:54:07 10° WSW 00:57:47 17° SW 01:00:42 10° S visible
09 Nov - 16:47:18 10° SSW 17:01:38 31° SSE 17:11:52 10° E daylight
09 Nov - 19:00:29 10° SW 19:15:19 52° SSE 19:24:00 10° E daylight
09 Nov - 21:16:27 10° W 21:27:58 62° S 21:34:20 10° ESE daylight
09 Nov - 23:32:06 10° W 23:39:06 35° SSW 23:43:35 10° SE visible
10 Nov - 15:28:06 10° S 15:40:16 21° SE 15:50:13 10° ESE daylight
10 Nov - 17:38:21 10° SW 17:54:18 44° SSE 18:04:36 10° E daylight
10 Nov - 19:53:33 10° WSW 20:07:45 62° S 20:15:42 10° E daylight
10 Nov - 22:09:52 10° W 22:19:54 54° SSW 22:25:37 10° ESE visible
11 Nov - 00:25:44 10° W 00:30:13 19° SW 00:33:35 10° S visible
11 Nov - 14:13:17 10° SSE 14:18:53 12° SE 14:24:09 10° ESE daylight
11 Nov - 16:17:16 10° SSW 16:32:54 34° SSE 16:44:22 10° E daylight
11 Nov - 18:30:41 10° WSW 18:46:56 56° SSE 18:56:40 10° E daylight
11 Nov - 20:47:03 10° W 21:00:03 64° S 21:07:12 10° ESE daylight
11 Nov - 23:03:17 10° W 23:11:28 38° SSW 23:16:30 10° SE visible
12 Nov - 14:57:56 10° S 15:11:21 24° SE 15:22:38 10° E daylight
12 Nov - 17:08:27 10° SW 17:25:36 47° SSE 17:37:04 10° E daylight
12 Nov - 19:23:52 10° WSW 19:39:30 65° S 19:48:25 10° E daylight
12 Nov - 21:40:37 10° W 21:52:04 56° SSW 21:58:29 10° ESE daylight
12 Nov - 23:57:05 10° W 00:02:32 20° SW 00:06:27 10° S visible
13 Nov - 13:42:15 10° SSE 13:49:57 14° SE 13:57:14 10° ESE daylight
13 Nov - 15:47:22 10° SSW 16:03:56 37° SSE 16:16:39 10° E daylight
13 Nov - 18:00:52 10° WSW 18:18:21 60° SSE 18:29:11 10° E daylight
13 Nov - 20:17:28 10° W 20:31:56 67° S 20:39:58 10° ESE daylight
13 Nov - 22:34:13 10° W 22:43:41 40° SSW 22:49:20 10° SE visible
14 Nov - 14:28:02 10° S 14:42:16 26° SE 14:54:43 10° E daylight
14 Nov - 16:38:38 10° SW 16:56:41 50° SSE 17:09:22 10° E daylight
14 Nov - 18:54:05 10° WSW 19:11:03 68° S 19:21:00 10° E daylight
14 Nov - 21:11:10 10° W 21:24:03 58° SSW 21:31:15 10° ESE daylight
14 Nov - 23:28:11 10° W 23:34:44 22° SW 23:39:17 10° S visible
15 Nov - 13:11:57 10° SSE 13:20:52 15° SE 13:29:32 10° ESE daylight
15 Nov - 15:17:38 10° SSW 15:34:47 39° SSE 15:48:40 10° E daylight
15 Nov - 17:31:04 10° WSW 17:49:31 62° SSE 18:01:33 10° E daylight
15 Nov - 19:47:45 10° W 20:03:36 68° S 20:12:36 10° ESE daylight
15 Nov - 22:04:54 10° W 22:15:43 41° SSW 22:22:06 10° SE visible
16 Nov - 13:58:22 10° S 14:13:01 28° SE 14:26:31 10° E daylight
16 Nov - 16:08:55 10° SW 16:27:32 53° SSE 16:41:27 10° E daylight
16 Nov - 18:24:18 10° WSW 18:42:22 70° S 18:53:27 10° E daylight
16 Nov - 20:41:32 10° W 20:55:52 59° SSW 21:03:56 10° ESE daylight
16 Nov - 22:59:01 10° W 23:06:47 24° SW 23:12:01 10° S visible
17 Nov - 12:42:06 10° SSE 12:51:41 16° SE 13:01:19 10° ESE daylight
17 Nov - 14:48:05 10° SSW 15:05:27 41° SSE 15:20:28 10° E daylight
17 Nov - 17:01:20 10° WSW 17:20:28 65° SSE 17:33:43 10° E daylight
17 Nov - 19:17:58 10° W 19:35:04 69° S 19:45:07 10° ESE daylight
17 Nov - 21:35:22 10° W 21:47:35 43° SSW 21:54:46 10° SE daylight
17 Nov - 23:56:37 10° WSW 23:57:21 10° SW 23:58:03 10° SW visible
